DTUSAT 1 27842U 03031C 10066.02819433 .00000054 00000-0 45142-4 0 7765 2 27842 098.7061 077.3715 0010336 084.4754 275.7592 14.21020496346673 CUTE-1 1 27844U 03031E 10067.66557678 +.00000065 +00000-0 +50591-4 0 07966 2 27844 098.7140 078.0773 0010899 099.7279 260.5126 14.20689200346814 QUAKESAT 1 27845U 03031F 10067.47137543 +.00000092 +00000-0 +63201-4 0 07693 2 27845 098.7199 077.3522 0009642 116.7175 243.4994 14.20332162346682 AAU CUBESAT 1 27846U 03031G 10067.01354890 +.00000039 +00000-0 +38173-4 0 07017 2 27846 098.7042 078.3340 0010221 080.4030 279.8274 14.21020122346811 CANX-1 1 27847U 03031H 10067.44821592 +.00000016 +00000-0 +27557-4 0 07203 2 27847 098.7037 078.7483 0010390 080.6992 279.5361 14.20998988346822 CUBESAT XI-IV 1 27848U 03031J 10067.68055389 +.00000039 +00000-0 +38582-4 0 07499 2 27848 098.7163 077.1670 0010415 102.6765 257.5560 14.20484109346771 UWE-1 1 28892U 05043C 10067.89108398 +.00000179 +00000-0 +46930-4 0 05743 2 28892 098.0261 314.9401 0016303 237.7697 122.1919 14.59829991232462 CUBESAT XI-V 1 28895U 05043F 10067.63944091 +.00000074 +00000-0 +24850-4 0 05309 2 28895 098.0271 315.3687 0016921 238.1906 121.7657 14.59855613232319 SSETI-EXPRESS DEB 1 28897U 05043H 10066.15692485 .00000167 00000-0 44131-4 0 902 2 28897 098.0274 313.8314 0016144 244.7412 115.2112 14.60039373224398 GENESAT 1 29655U 06058C 10066.15679461 .00052242 00000-0 31952-3 0 9671 2 29655 040.0191 326.1036 0007624 298.2580 061.7467 15.76371109183809 MAST 1 31126U 07012K 10067.78935783 +.00000066 +00000-0 +25220-4 0 08140 2 31126 097.9504 114.9330 0094474 177.5470 182.6183 14.53560879153476 LIBERTAD 1 1 31128U 07012M 10066.17075115 -.00000046 00000-0 00000+0 0 8703 2 31128 097.9532 110.9818 0102778 189.9378 169.9808 14.52124336153067 CP3 1 31129U 07012N 10065.55497851 .00000150 00000-0 45124-4 0 5219 2 31129 097.9533 110.5578 0102033 191.5974 168.2885 14.52217789152963 CAPE 1 1 31130U 07012P 10067.53675659 +.00000197 +00000-0 +56121-4 0 08320 2 31130 097.9499 112.3033 0102494 185.8109 174.1921 14.52144186153057 CP4 1 31132U 07012Q 10066.07637655 .00000288 00000-0 73470-4 0 8411 2 31132 097.9551 116.2596 0086399 174.1794 186.0499 14.55285628153266 CANX-6 1 32784U 08021B 10065.91390989 -.00000006 00000-0 61128-5 0 6262 2 32784 097.9078 131.8729 0014893 252.2221 107.7340 14.81143811100317 CUTE-1.7+APD II 1 32785U 08021C 10065.91782283 .00000102 00000-0 19773-4 0 6214 2 32785 097.9074 132.2098 0013933 257.2285 102.7366 14.81597077100340 COMPASS 1 1 32787U 08021E 10066.61121754 +.00000597 +00000-0 +82325-4 0 06147 2 32787 097.9046 132.7210 0014822 254.8566 105.1033 14.81781113100451 AAUSAT CUBESAT 2 1 32788U 08021F 10067.43414337 +.00000661 +00000-0 +90089-4 0 06105 2 32788 097.9079 133.6431 0013870 252.7227 107.2438 14.81918785100589 DELFI C3 1 32789U 08021G 10065.89797618 .00001078 00000-0 14242-3 0 6233 2 32789 097.9107 132.4892 0014672 256.9700 102.9844 14.81998471100351 CANX-2 1 32790U 08021H 10066.59988072 +.00000020 +00000-0 +92931-5 0 06081 2 32790 097.9050 132.8149 0014480 255.6128 104.3482 14.81565769100428 SEEDS 1 32791U 08021J 10065.40323763 .00000262 00000-0 40139-4 0 6036 2 32791 097.9067 131.5534 0014983 258.6058 101.3481 14.81580913100237 PSLV DEB 1 32797U 08021L 10067.64988451 +.00004556 +00000-0 +54630-3 0 02431 2 32797 097.9551 137.2142 0018803 266.3265 093.4779 14.84438892099374